Regional Weather Roundup
Issued by NWS Little Rock, AR

Home | Current Version | Previous Version | Graphics & Text | Print | Product List | Glossary On
Versions: 1 2 3 4 5 6 7 8 9 10 11 12 13 14 15 16 17 18 19 20 21 22 23 24 25 26 27
000
ASUS44 KLZK 291505
RWRLZK

WEATHER ROUNDUP FOR ARKANSAS
NATIONAL WEATHER SERVICE LITTLE ROCK AR
1000 AM CDT FRI APR 29 2016

NOTE: "FAIR" INDICATES FEW OR NO CLOUDS BELOW 12,000 FEET WITH NO
SIGNIFICANT WEATHER AND/OR OBSTRUCTIONS TO VISIBILITY.

ARZ001-003-010-029-291600-
NORTHWEST ARKANSAS

CITY           SKY/WX    TMP DP  RH WIND       PRES   REMARKS
FAYETTEVILLE   LGT RAIN  54  54 100 E14G21    29.87F
FORT SMITH     LGT RAIN  60  55  83 E13G23    29.85F
HARRISON       TSTM      52  51  97 E10       30.02S FOG
BENTONVILLE    CLOUDY    55  48  76 E18       29.88F
ROGERS         RAIN      54  52  93 E18G26    29.90F
SILOAM SPGS    CLOUDY    54  45  71 E12G21    29.86F
HIGHFILL       LGT RAIN  55  53  93 E20G29    29.87F
SPRINGDALE     PTSUNNY   54  52  94 E17G28    29.91F
$$

ARZ004-005-016-291600-
NORTH CENTRAL ARKANSAS

CITY           SKY/WX    TMP DP  RH WIND       PRES   REMARKS
BATESVILLE     CLOUDY    55  54  94 CALM      30.03R
FLIPPIN        CLOUDY   N/A N/A N/A N5        30.00F
MTN HOME       HVY RAIN  53  52  96 NE3       30.02S FOG
$$

ARZ040-041-291600-
WEST CENTRAL ARKANSAS

CITY           SKY/WX    TMP DP  RH WIND       PRES   REMARKS
MENA           CLOUDY    63  61  94 CALM      29.86R THUNDER
MOUNT IDA      HVY RAIN  62  60  93 VRB5G17   29.84R FOG
$$

ARZ009-017-025-026-028-291600-
NORTHEAST ARKANSAS

CITY           SKY/WX    TMP DP  RH WIND       PRES   REMARKS
CORNING          N/A     59  50  72 NE12      30.02F
JONESBORO      TSTM      61  54  77 N6        30.01R
NEWPORT        CLOUDY    59  57  92 N16       29.98F
WALNUT RIDGE   CLOUDY    59  50  72 N10       30.03R
BLYTHEVILLE    CLOUDY    64  53  67 NE10      29.99R
NW BLYTHEVILLE CLOUDY    64  54  68 NE9       29.97R
$$

ARZ022-023-033-042-044-291600-
CENTRAL ARKANSAS

CITY           SKY/WX    TMP DP  RH WIND       PRES   REMARKS
LITTLE ROCK    LGT RAIN  63  61  93 NE8       29.88R
N LITTLE ROCK    N/A     61  60  96 E6        29.86S
JACKSONVILLE   TSTM      60  60  99 NE8       29.88F
SEARCY         TSTM      60  58  92 NE13      29.97S FOG
HOT SPRINGS    TSTM      62  61  96 E14G20    29.80F
RUSSELLVILLE   TSTM      58  55  90 NE29G41   29.88F FOG
$$

ARZ036-291600-
EAST ARKANSAS

CITY           SKY/WX    TMP DP  RH WIND       PRES   REMARKS
WEST MEMPHIS   TSTM      67  56  67 NE8       29.90R
$$

ARZ050-053-066-070-073-291600-
SOUTHWEST ARKANSAS

CITY           SKY/WX    TMP DP  RH WIND       PRES   REMARKS
ARKADELPHIA    PTSUNNY   66  66 100 N5        29.81F THUNDER
CAMDEN         CLOUDY    73  68  83 SE5       29.80F
TEXARKANA      CLOUDY    74  70  87 SW13      29.78R
EL DORADO      CLOUDY    74  70  87 S9        29.81F
DE QUEEN       TSTM      66  66 100 N7G18     29.77R FOG
$$

ARZ056-057-069-291600-
SOUTHEAST ARKANSAS

CITY           SKY/WX    TMP DP  RH WIND       PRES   REMARKS
PINE BLUFF     TSTM      67  66  97 N5        29.90R FOG
STUTTGART      CLOUDY    63  54  72 MISG      29.91R THUNDER
MONTICELLO     CLOUDY    74  70  87 VRB5G17   29.85R

$$






USA.gov is the U.S. government's official web portal to all federal, state and local government web resources and services.